Location: Azul
(36.7830°S, 59.8500°W)
Time: 00:30:51
(UTC-03:00)

CUBEBUG 2 - Pass Details

Date: 24 October 2021
Orbit: 584 x 697 km, 97.7° (Epoch: 30 November)

Event Time Altitude Azimuth Distance (km) Brightness Sun altitude
Exits shadow 03:32:03 55° 137° (SE) 730 ? -27.3°
Drops below altitude 10° 03:35:50 10° 184° (S) 1,993 ? -26.7°
Sets 03:38:05 0° 187° (S) 2,923 ? -26.4°
